This is the latest recevied weather packets stored in our database for station/object AI5BL. If no packets are shown the sender has not sent any weather packets the latest 10 day(s).
| Time | Temp. | Humidity | Pressure | Rain* | Wind** | Luminosity | Snow |
|---|---|---|---|---|---|---|---|
| 1778012279 | 26.11° C | 65% | 1013.8 hPa | 0 mm | - | 255 W/m² | - |
| 1778011977 | 26.11° C | 69% | 1014 hPa | 0 mm | - | 256 W/m² | - |
| 1778011675 | 26.11° C | 67% | 1014 hPa | 0 mm | - | 212 W/m² | - |
| 1778011372 | 25.56° C | 70% | 1014.3 hPa | 0 mm | - | 204 W/m² | - |
| 1778011067 | 26.11° C | 65% | 1014.2 hPa | 0 mm | - | 157 W/m² | - |
| 1778010765 | 26.67° C | 64% | 1014.3 hPa | 0 mm | - | 198 W/m² | - |
| 1778010462 | 26.67° C | 64% | 1014.2 hPa | 0 mm | - | 245 W/m² | - |
| 1778010158 | 26.67° C | 67% | 1014.3 hPa | 0 mm | - | 272 W/m² | - |
| 1778009854 | 26.67° C | 59% | 1014.2 hPa | 0 mm | - | 297 W/m² | - |
| 1778009552 | 26.67° C | 60% | 1014.4 hPa | 0 mm | - | 344 W/m² | - |
| 1778009250 | 26.67° C | 62% | 1014.5 hPa | 0 mm | - | 309 W/m² | - |
| 1778008947 | 26.67° C | 62% | 1014.6 hPa | 0 mm | - | 344 W/m² | - |
| 1778008645 | 26.67° C | 61% | 1014.5 hPa | 0 mm | - | 299 W/m² | - |
| 1778008344 | 27.22° C | 57% | 1014.9 hPa | 0 mm | - | 300 W/m² | - |
| 1778008039 | 26.67° C | 60% | 1014.8 hPa | 0 mm | - | 289 W/m² | - |
| 1778007739 | 27.78° C | 56% | 1015 hPa | 0 mm | - | 326 W/m² | - |
| 1778007436 | 27.22° C | 58% | 1014.8 hPa | 0 mm | - | 600 W/m² | - |
| 1778007133 | 26.67° C | 58% | 1014.9 hPa | 0 mm | - | 492 W/m² | - |
| 1778006829 | 26.67° C | 62% | 1015.1 hPa | 0 mm | - | 574 W/m² | - |
| 1778006526 | 26.67° C | 58% | 1014.9 hPa | 0 mm | - | 494 W/m² | - |
| 1778006223 | 26.67° C | 61% | 1015.2 hPa | 0 mm | - | 391 W/m² | - |
| 1778005921 | 27.22° C | 59% | 1015.1 hPa | 0 mm | - | 316 W/m² | - |
| 1778005616 | 27.22° C | 56% | 1015.3 hPa | 0 mm | - | 351 W/m² | - |
| 1778005314 | 27.78° C | 63% | 1015.4 hPa | 0 mm | - | 384 W/m² | - |
| 1778005010 | 27.78° C | 60% | 1015.2 hPa | 0 mm | - | 400 W/m² | - |
* Rain latest hour (hover to see other rain measurements)
** Current wind speed in m/s (hover to see current wind gust speed)